Location: Unspecified
(0.0000°N, 0.0000°E)
Time: 20:15:49
(UTC+02:00)

CZ-4B DEB - Visible Passes

Search period start: 25 April 2015 00:00
Search period end: 05 May 2015 00:00
Orbit: 489 x 497 km, 97.5° (Epoch: 24 April)

Date Brightness Start Highest point End Pass type
(mag) Time Alt. Az. Time Alt. Az. Time Alt. Az.
25 Apr 3.0 20:42:58 10° SSE 20:46:35 68° E 20:50:12 10° N visible
26 Apr 4.1 20:21:37 10° SE 20:24:44 27° E 20:27:54 10° NNE visible
27 Apr 6.0 21:33:49 10° SW 21:36:16 17° W 21:38:35 10° WNW visible
28 Apr 4.6 21:10:51 10° S 21:14:16 37° W 21:17:38 10° NNW visible
29 Apr 3.0 20:48:35 10° SSE 20:52:14 85° E 20:55:52 10° N visible
30 Apr 3.8 20:26:51 10° SE 20:30:08 33° E 20:33:27 10° NNE visible
01 May 6.1 21:39:20 10° SW 21:41:24 14° W 21:43:16 10° WNW visible
02 May 4.9 21:15:51 10° SSW 21:19:07 31° W 21:22:21 10° NW visible
03 May 3.1 20:53:11 10° S 20:56:50 80° WSW 21:00:27 10° NNW visible
04 May 3.6 20:31:04 10° SSE 20:34:28 39° E 20:37:53 10° N visible
